(331590) = 1997 OA3 = 2001 TY132

Discovered at Haleakala on 2001-10-12 by NEAT.

Orbit

Orbit type: Main Belt

Note: WebGL enabled browser required.

epoch2023-09-13.0
epoch JD2460200.5
perihelion date2023-09-06.29911
perihelion JD2460193.79911
argument of perihelion (°)8.46526
ascending node (°)291.87916
inclination (°)4.49715
eccentricity0.2127947
perihelion distance (AU)1.8972333
Tisserand w.r.t. Jupiter3.5
ΔV w.r.t. Earth (km/sec)8.7
semimajor axis (AU)2.4100871
mean anomaly (°)1.76517
mean daily motion (°/day)0.26342360
aphelion distance (AU)2.923
period (years)3.74
P-vector [x]0.50477624
P-vector [y]-0.79653718
P-vector [z]-0.33276036
Q-vector [x]0.86017828
Q-vector [y]0.43161818
Q-vector [z]0.27165986
absolute magnitude17.2
phase slope0.15
uncertainty0
referenceMPEC 2024-A34
observations used275
oppositions15
arc length (days)9478
first opposition used1997
last opposition used2023
residual rms (arc-secs)0.79
perturbers coarse indicatorM-v
perturbers precise indicator003Ek
first observation date used1997-07-30.0
last observation date used2023-07-12.0
computer nameMPCLINUX
JD of orbit computation2456670.944148
perihelion JD uncertainty (days)4.7092E-05
argument of perihelion uncertainty (°)7.1604E-05
ascending node uncertainty (°)7.0507E-05
inclination uncertainty (°)8.2635E-06
eccentricity uncertainty 1.3125E-07
perihelion distance uncertainty (AU)3.1740E-07
Minimum Orbit Intersection Distances (in AU)
for orbit epoch: 2460200.5, reference: E2024-A34
Mercury1.4546
Venus1.17067
Earth0.88115
Mars0.48171
Jupiter2.29425
Saturn6.17028
Uranus15.6346
Neptune27.224

Observations

281 total observations over interval: 1997 07 30.98496 – 2023 07 12.916580
These data are available for download (format description).

Date (UT) J2000 RA J2000 Dec Magn Location Ref
1997 07 30.98496 21 33 12.47 -10 41 40.9 19.9 V 910 – Caussols-ODAS MPC 30620
1997 07 31.00868 21 33 11.22 -10 41 40.3 19.6 V 910 – Caussols-ODAS MPC 30620
1997 07 31.03151 21 33 10.01 -10 41 39.9 19.7 V 910 – Caussols-ODAS MPC 30620
1997 08 01.98407 21 31 31.83 -10 41 07.7 19.5 V 910 – Caussols-ODAS MPC 30620
1997 08 02.00815 21 31 30.53 -10 41 07.2 19.7 V 910 – Caussols-ODAS MPC 30620
1997 08 02.03142 21 31 29.27 -10 41 07.2 19.6 V 910 – Caussols-ODAS MPC 30620
2001 09 10.33034 01 08 15.29 +15 27 20.0 19.9   704 – Lincoln Laboratory ETS, New Mexico MPS 44294
2001 09 10.34403 01 08 14.82 +15 27 19.3 20.2   704 – Lincoln Laboratory ETS, New Mexico MPS 44294
2001 09 10.37131 01 08 13.67 +15 27 18.2 20.0   704 – Lincoln Laboratory ETS, New Mexico MPS 44294
2001 09 10.38495 01 08 13.04 +15 27 16.3 20.4   704 – Lincoln Laboratory ETS, New Mexico MPS 44294
2001 10 12.40269 00 39 55.76 +13 12 26.5 20.2   608 – Haleakala-AMOS MPS 39539
2001 10 12.41317 00 39 55.14 +13 12 22.6 20.4   608 – Haleakala-AMOS MPS 39539
2001 10 12.42352 00 39 54.56 +13 12 18.3 19.8   608 – Haleakala-AMOS MPS 39539
2001 10 14.19448 00 38 18.91 +13 00 43.7 19.9   704 – Lincoln Laboratory ETS, New Mexico MPS 44294
2001 10 14.22597 00 38 17.21 +13 00 29.2 20.2   704 – Lincoln Laboratory ETS, New Mexico MPS 44294
2001 10 14.24174 00 38 16.43 +13 00 23.1 19.6   704 – Lincoln Laboratory ETS, New Mexico MPS 44294
2001 10 15.44052 00 37 13.00 +12 52 30.0 21.0   608 – Haleakala-AMOS MPS 39539
2001 10 15.45099 00 37 12.41 +12 52 25.6 21.0   608 – Haleakala-AMOS MPS 39539
2001 10 15.46150 00 37 11.80 +12 52 22.2 20.5   608 – Haleakala-AMOS MPS 39539
2001 10 17.25885 00 35 40.14 +12 40 27.8 19.6   704 – Lincoln Laboratory ETS, New Mexico MPS 44294
2001 10 17.27482 00 35 39.30 +12 40 21.9 19.7   704 – Lincoln Laboratory ETS, New Mexico MPS 44294
2001 10 17.29080 00 35 38.37 +12 40 15.4 20.0   704 – Lincoln Laboratory ETS, New Mexico MPS 44294
2001 10 20.37746 00 33 09.46 +12 19 52.5 19.7   644 – Palomar Mountain/NEAT MPS 40911
2001 10 20.39893 00 33 08.41 +12 19 43.5 19.7   644 – Palomar Mountain/NEAT MPS 40911
2001 10 20.42016 00 33 07.39 +12 19 35.5 20.1   644 – Palomar Mountain/NEAT MPS 40911
2003 01 25.179020 07 45 54.389 +20 29 47.86 21.49 V 645 – Apache Point-Sloan Digital Sky Survey MPS 79948
2003 01 25.182492 07 45 54.165 +20 29 48.17 22.28   645 – Apache Point-Sloan Digital Sky Survey MPS 79948
2007 03 16.22671 08 42 37.08 +14 50 20.0 22.1 V G96 – Mt. Lemmon Survey MPS 204499
2007 03 16.23343 08 42 36.90 +14 50 20.4 22.2 V G96 – Mt. Lemmon Survey MPS 204499
2007 03 16.24017 08 42 36.72 +14 50 20.7 21.8 V G96 – Mt. Lemmon Survey MPS 204499
2007 03 16.24700 08 42 36.54 +14 50 21.1 22.0 V G96 – Mt. Lemmon Survey MPS 204499
2009 11 17.40256 05 26 56.36 +27 32 15.0 20.8 V G96 – Mt. Lemmon Survey MPS 303193
2009 11 17.40794 05 26 56.04 +27 32 15.0 20.6 V G96 – Mt. Lemmon Survey MPS 303193
2009 11 17.41326 05 26 55.75 +27 32 14.3 20.5 V G96 – Mt. Lemmon Survey MPS 303193
2009 11 17.41859 05 26 55.42 +27 32 14.4 20.2 V G96 – Mt. Lemmon Survey MPS 303193
2009 11 23.36572 05 21 07.01 +27 24 44.9 20.8 V 691 – Steward Observatory, Kitt Peak-Spacewatch MPS 304763
2009 11 23.38355 05 21 05.86 +27 24 43.5 20.7 V 691 – Steward Observatory, Kitt Peak-Spacewatch MPS 304763
2009 11 23.40133 05 21 04.72 +27 24 41.7 21.0 V 691 – Steward Observatory, Kitt Peak-Spacewatch MPS 304763
2009 12 11.36226 05 00 54.36 +26 43 52.7 20.2 V G96 – Mt. Lemmon Survey MPS 306593
2009 12 11.36740 05 00 53.96 +26 43 52.1 20.2 V G96 – Mt. Lemmon Survey MPS 306593
2009 12 11.37257 05 00 53.64 +26 43 50.8 20.0 V G96 – Mt. Lemmon Survey MPS 306593
2009 12 11.37777 05 00 53.28 +26 43 50.0 20.0 V G96 – Mt. Lemmon Survey MPS 306593
2011 02 26.30660 10 33 46.40 +03 36 11.2 20.5 V G96 – Mt. Lemmon Survey MPS 371937
2011 02 26.31353 10 33 45.97 +03 36 13.1 20.0 V G96 – Mt. Lemmon Survey MPS 371937
2011 02 26.32051 10 33 45.64 +03 36 15.3 20.2 V G96 – Mt. Lemmon Survey MPS 371937
2011 02 26.32747 10 33 45.14 +03 36 16.9 20.6 V G96 – Mt. Lemmon Survey MPS 371937
2012 06 20.41240 22 12 25.16 -09 36 04.2 21.1 V 703 – Catalina Sky Survey MPS 427294
2012 06 20.41969 22 12 25.48 -09 36 01.7 20.9 V 703 – Catalina Sky Survey MPS 427294
2012 06 20.42713 22 12 25.66 -09 35 59.7 20.2 V 703 – Catalina Sky Survey MPS 427294
2012 06 20.43446 22 12 25.88 -09 35 55.8 20.4 V 703 – Catalina Sky Survey MPS 427294
2012 08 10.24136 22 04 55.70 -06 28 48.1 19.3 V 691 – Steward Observatory, Kitt Peak-Spacewatch MPS 429316
2012 08 10.25041 22 04 55.19 -06 28 48.5 19.4 G G45 – Space Surveillance Telescope, Atom Site MPS 1609612
2012 08 10.25910 22 04 54.75 -06 28 48.8 19.2 V 691 – Steward Observatory, Kitt Peak-Spacewatch MPS 429316
2012 08 10.27685 22 04 53.77 -06 28 50.1 18.9 V 691 – Steward Observatory, Kitt Peak-Spacewatch MPS 429316
2012 08 10.28781 22 04 53.16 -06 28 50.3 18.8 G G45 – Space Surveillance Telescope, Atom Site MPS 1609612
2012 08 10.31743 22 04 51.57 -06 28 51.2 19.3 G G45 – Space Surveillance Telescope, Atom Site MPS 1609612
2012 08 10.37206 22 04 48.59 -06 28 53.7 19.1 G G45 – Space Surveillance Telescope, Atom Site MPS 1609612
2012 08 10.39903 22 04 47.13 -06 28 54.8 19.0 G G45 – Space Surveillance Telescope, Atom Site MPS 1609612
2012 08 13.41420 22 02 10.086 -06 31 31.76 18.7 w F51 – Pan-STARRS 1, Haleakala MPS 430001
2012 08 13.42869 22 02 09.263 -06 31 32.75 18.7 w F51 – Pan-STARRS 1, Haleakala MPS 430001
2012 08 13.44323 22 02 08.437 -06 31 33.66 18.8 w F51 – Pan-STARRS 1, Haleakala MPS 430001
2012 08 13.45798 22 02 07.598 -06 31 34.62 18.7 w F51 – Pan-STARRS 1, Haleakala MPS 430001
2012 08 16.40824 21 59 29.129 -06 35 17.04 18.7 r F51 – Pan-STARRS 1, Haleakala MPS 430001
2012 08 16.41825 21 59 28.546 -06 35 17.89 18.6 r F51 – Pan-STARRS 1, Haleakala MPS 430001
2012 08 16.42858 21 59 27.949 -06 35 18.78 19.2 g F51 – Pan-STARRS 1, Haleakala MPS 430001
2012 08 16.43894 21 59 27.349 -06 35 19.69 19.1 g F51 – Pan-STARRS 1, Haleakala MPS 430001
2012 08 24.19822 21 52 28.34 -06 49 04.5 18.9 V 703 – Catalina Sky Survey MPS 431041
2012 08 24.20332 21 52 28.16 -06 49 03.1 18.8 V 703 – Catalina Sky Survey MPS 431041
2012 08 24.20841 21 52 27.84 -06 49 03.7 18.7 V 703 – Catalina Sky Survey MPS 431041
2012 08 24.21351 21 52 27.55 -06 49 04.4 18.7 V 703 – Catalina Sky Survey MPS 431041
2012 11 12.09630 22 06 41.68 -05 59 58.0 20.7 V G96 – Mt. Lemmon Survey MPS 443294
2012 11 12.10356 22 06 42.22 -05 59 55.3 20.6 V G96 – Mt. Lemmon Survey MPS 443294
2012 11 12.11087 22 06 42.66 -05 59 54.1 21.1 V G96 – Mt. Lemmon Survey MPS 443294
2012 11 12.11813 22 06 43.30 -05 59 50.8 20.6 V G96 – Mt. Lemmon Survey MPS 443294
2013 11 28.50257 07 11 13.26 +24 28 51.4 22.3 V G96 – Mt. Lemmon Survey MPS 489851
2013 11 28.50929 07 11 13.04 +24 28 51.3 21.6 V G96 – Mt. Lemmon Survey MPS 489851
2013 11 28.51604 07 11 12.80 +24 28 51.9 21.3 V G96 – Mt. Lemmon Survey MPS 489851
2013 11 28.52278 07 11 12.53 +24 28 51.6 21.6 V G96 – Mt. Lemmon Survey MPS 489851
2013 12 26.37158 06 45 43.149 +24 38 07.10 20.9 w F51 – Pan-STARRS 1, Haleakala MPS 493316
2013 12 26.38697 06 45 42.089 +24 38 07.03 20.8 w F51 – Pan-STARRS 1, Haleakala MPS 493316
2013 12 26.40240 06 45 41.017 +24 38 07.10 20.9 w F51 – Pan-STARRS 1, Haleakala MPS 493316
2013 12 26.41785 06 45 39.945 +24 38 07.23 20.9 w F51 – Pan-STARRS 1, Haleakala MPS 493316
2015 01 23.55515 12 30 23.989 -08 30 37.01 21.6 w F51 – Pan-STARRS 1, Haleakala MPS 569398
2015 01 23.57054 12 30 24.210 -08 30 41.11 21.6 w F51 – Pan-STARRS 1, Haleakala MPS 569398
2015 01 23.58594 12 30 24.420 -08 30 45.17 21.6 w F51 – Pan-STARRS 1, Haleakala MPS 569398
2015 03 22.26388 12 04 48.93 -08 07 34.7 20.3 V G96 – Mt. Lemmon Survey MPS 594982
2015 03 22.26954 12 04 48.59 -08 07 33.0 20.5 V G96 – Mt. Lemmon Survey MPS 594982
2015 03 22.27520 12 04 48.24 -08 07 31.3 20.4 V G96 – Mt. Lemmon Survey MPS 594982
2015 03 22.28086 12 04 47.91 -08 07 29.4 20.3 V G96 – Mt. Lemmon Survey MPS 594982
2015 03 29.22264 11 58 00.87 -07 29 22.4 20.8 r G45 – Space Surveillance Telescope, Atom Site MPS 602957
2015 03 29.23875 11 57 59.93 -07 29 16.9 19.8 r G45 – Space Surveillance Telescope, Atom Site MPS 602957
